{"data":{"norad_id":55462,"intl_designator":"2023-015P","name":"STARLINK-5673","alt_names":[],"object_type":"PAYLOAD","status":"ACTIVE","operator":null,"country":"US","launch_date":"2023-02-02","launch_site_code":"AFETR","launch_vehicle":null,"mission":null,"orbit_class":"UNKNOWN","rcs_meters":null,"size_class":null,"mass_kg":null,"dimensions":null,"purposes":["comms"],"wikipedia_slug":null,"has_3d_model":false,"image_url":null,"decayed_at":null,"tle_current":{"epoch":"2026-09-20T05:00:22.146624Z","epoch_age_seconds":125571,"freshness":"FRESH","line1":"1 55462U 23015P   26263.20858966 -.00001014  00000+0 -27330-4 0  9992","line2":"2 55462  43.0026 309.9720 0001490 274.1704  85.8978 15.27569758200471","mean_motion":15.27569758,"eccentricity":0.000149,"inclination_deg":43.0026,"raan_deg":309.972,"arg_perigee_deg":274.1704,"mean_anomaly_deg":85.8978,"bstar":-2.733e-5,"rev_number":20047,"period_min":94.267380750281,"perigee_km":482.05744314564,"apogee_km":484.10208574145,"semimajor_km":6861.2167644435,"source":"CELESTRAK","updated_at":"2026-09-21T09:00:33.229326Z"}}}